{"data":{"norad_id":56896,"epoch":"2026-09-19T19:13:58.089792Z","epoch_age_seconds":177943,"freshness":"STALE","line1":"1 56896U 23083W   26262.80136678  .00000490  00000+0  27320-4 0  9997","line2":"2 56896  43.0047  72.6711 0001733 276.4469  83.6185 15.27580640181380","mean_motion":15.2758064,"eccentricity":0.0001733,"inclination_deg":43.0047,"raan_deg":72.6711,"arg_perigee_deg":276.4469,"mean_anomaly_deg":83.6185,"bstar":2.732e-5,"rev_number":18138,"period_min":94.266709219357,"perigee_km":481.85813643175,"apogee_km":484.23622286842,"semimajor_km":6861.1841796501,"source":"CELESTRAK","updated_at":"2026-09-21T09:00:33.523691Z"}}